Accueil
METAR-TAF:

METAR-TAF

Aéroports :

Sarzana, Italie

Luni

latitude: 44-05N, longitude: 009-59E, altitude: 9 m

Observation

Le bulletin a été fait il y a 53 minutes, à 09:55 UTC
Vent 3 kt de nord-ouest
Température 13°C
Humidité 72%
Pression 1020 hPa
Visibilité 10 km ou plus
Nuages fragmentés à une hauteur de 4000 ft

METAR: LIQW 220955Z 32003KT 9999 BKN040 13/08 Q1020 RMK BKN VIS MIN 9999 WIND THR18 01002KT BLU

Heure: 11:48 (10:48 UTC)


TAF: absent

Observations et prévisions météorologiques de plus de 4000 aéroports (messages METAR et TAF).

Les stations disponibles sont représentées par des disques jaunes et rouges sur la carte.

Passer la souris dessus pour voir le nom de la station.

Cliquer dessus pour voir les observations et prévisions météorologiques.

Pour changer de carte: cliquez sur les boutons verts avec une croix noire pour zoomer, sur le bouton vert avec un tiret pour effectuer un zoom arrière, ou sur les flèches vertes pour les cartes adjacentes.


METAR-TAF: